Temp
-11 -12 -12 -13 -13 -13 -13 -13 -13 -13 -13 -14 -13 -13 -13 -13 -13 -14 -14 -14 -14 -14 -14 -13 -13 -13 -13 -13 -12 -12 -12 -12 -12 -11 -11 -11 -11 -11 -11 -11 -11 -11 -10 -10
-12 -12 -12 -13 -13 -13 -13 -13 -14 -13 -13 -13 -14 -13 -13 -13 -14 -14 -14 -14 -14 -14 -14 -14 -14 -13 -13 -13 -12 -13 -13 -13 -13 -12 -11 -11 -11 -11 -11 -11 -11 -11 -10 -10
-12 -12 -12 -12 -13 -13 -13 -14 -14 -14 -14 -14 -13 -13 -13 -13 -14 -14 -14 -14 -14 -14 -15 -14 -14 -14 -13 -13 -13 -13 -13 -13 -13 -13 -11 -11 -11 -11 -11 -11 -11 -11 -10 -11
-12 -12 -12 -12 -13 -13 -13 -14 -14 -14 -14 -14 -14 -14 -14 -15 -15 -15 -15 -15 -15 -14 -14 -15 -15 -14 -13 -13 -14 -13 -14 -13 -13 -12 -12 -12 -11 -11 -11 -11 -11 -11 -11 -11
-12 -12 -12 -12 -13 -13 -13 -14 -14 -14 -14 -14 -15 -14 -14 -15 -16 -16 -15 -15 -15 -15 -15 -15 -15 -14 -14 -13 -14 -14 -13 -12 -12 -10 -10 -11 -11 -11 -11 -11 -11 -11 -11 -11
-12 -12 -12 -13 -13 -13 -13 -14 -14 -14 -14 -14 -14 -14 -14 -15 -15 -16 -16 -16 -16 -17 -16 -15 -15 -15 -14 -14 -14 -14 -13 -12 -11 -12 -12 -12 -11 -11 -11 -11 -11 -11 -11 -11
-12 -12 -12 -13 -13 -13 -14 -14 -13 -14 -14 -14 -14 -14 -15 -16 -16 -16 -17 -18 -17 -17 -16 -15 -15 -15 -15 -14 -14 -14 -13 -13 -13 -12 -12 -11 -11 -11 -11 -11 -11 -11 -11 -11
-11 -12 -12 -12 -13 -13 -13 -14 -14 -14 -14 -14 -14 -15 -15 -16 -16 -17 -17 -17 -17 -17 -16 -15 -15 -15 -15 -14 -14 -14 -13 -13 -13 -13 -12 -12 -12 -11 -11 -11 -11 -11 -11 -11
-11 -12 -12 -12 -13 -13 -13 -14 -14 -14 -14 -14 -15 -15 -16 -16 -16 -17 -16 -16 -16 -16 -15 -15 -15 -15 -14 -14 -14 -14 -13 -13 -13 -13 -13 -12 -12 -12 -12 -12 -12 -12 -12 -13
-11 -12 -12 -12 -12 -13 -13 -14 -14 -14 -14 -14 -15 -15 -15 -16 -16 -16 -16 -16 -16 -16 -16 -16 -15 -15 -15 -14 -14 -14 -14 -13 -14 -14 -13 -13 -13 -13 -13 -13 -13 -12 -12 -12
-11 -11 -12 -12 -13 -13 -13 -14 -14 -14 -14 -15 -15 -15 -16 -15 -16 -16 -16 -16 -16 -16 -16 -16 -15 -15 -15 -15 -14 -14 -14 -14 -14 -14 -14 -14 -13 -13 -13 -13 -13 -13 -13 -13
-11 -11 -12 -13 -12 -13 -13 -14 -14 -14 -14 -15 -15 -15 -15 -15 -15 -15 -15 -16 -16 -16 -16 -16 -15 -15 -15 -15 -14 -14 -14 -14 -14 -14 -13 -13 -13 -13 -13 -14 -14 -14 -14 -14
-12 -12 -12 -13 -13 -12 -13 -13 -14 -14 -14 -15 -15 -15 -15 -15 -15 -15 -15 -15 -15 -15 -15 -15 -15 -15 -15 -15 -14 -14 -14 -13 -13 -14 -13 -13 -14 -14 -15 -15 -14 -14 -14 -14
-12 -12 -12 -12 -13 -13 -13 -13 -13 -14 -14 -15 -15 -15 -15 -15 -15 -15 -15 -15 -15 -15 -15 -15 -15 -15 -15 -15 -14 -14 -14 -14 -14 -14 -14 -15 -15 -15 -14 -14 -14 -14 -14 -14
-12 -12 -12 -12 -12 -13 -13 -13 -13 -14 -14 -14 -15 -15 -15 -15 -15 -15 -15 -15 -15 -15 -15 -15 -15 -15 -15 -15 -15 -15 -15 -15 -15 -15 -15 -14 -14 -14 -14 -14 -14 -14 -14 -14
-12 -12 -12 -12 -12 -13 -13 -13 -13 -13 -14 -14 -14 -15 -15 -15 -15 -15 -15 -15 -15 -15 -15 -15 -15 -16 -16 -15 -15 -15 -15 -15 -15 -15 -14 -14 -14 -14 -14 -14 -14 -14 -14 -14
-12 -12 -12 -12 -12 -12 -13 -13 -14 -13 -14 -14 -14 -14 -15 -15 -15 -15 -15 -15 -15 -15 -15 -15 -15 -15 -15 -15 -15 -15 -15 -15 -15 -15 -15 -14 -14 -14 -14 -14 -14 -14 -14 -14
-12 -13 -13 -13 -12 -13 -13 -13 -13 -14 -13 -14 -14 -14 -15 -15 -15 -15 -15 -15 -15 -16 -16 -16 -16 -16 -16 -16 -16 -15 -15 -15 -15 -15 -14 -14 -14 -14 -15 -15 -15 -15 -14 -14
-13 -13 -13 -13 -13 -13 -13 -12 -13 -14 -13 -14 -14 -14 -15 -15 -15 -15 -15 -15 -16 -16 -16 -16 -16 -16 -16 -16 -16 -15 -15 -15 -15 -15 -15 -14 -15 -15 -15 -15 -15 -14 -14 -14
-13 -14 -14 -13 -13 -13 -13 -13 -13 -13 -14 -14 -14 -14 -15 -15 -15 -15 -15 -15 -15 -16 -16 -16 -16 -16 -16 -16 -16 -16 -16 -15 -15 -15 -15 -15 -15 -15 -15 -15 -14 -14 -14 -14
-14 -14 -14 -14 -14 -14 -13 -13 -13 -13 -14 -14 -14 -14 -15 -15 -15 -15 -16 -16 -16 -16 -15 -16 -16 -16 -16 -16 -16 -16 -16 -16 -16 -16 -16 -16 -16 -15 -15 -15 -14 -14 -14 -14
-14 -14 -14 -14 -15 -14 -14 -13 -13 -14 -13 -14 -14 -15 -15 -15 -15 -15 -16 -16 -16 -16 -16 -16 -16 -16 -16 -16 -16 -16 -16 -16 -16 -16 -16 -16 -16 -15 -15 -15 -14 -14 -14 -14
-14 -15 -15 -15 -16 -15 -13 -13 -14 -14 -14 -14 -14 -15 -15 -15 -15 -16 -16 -16 -16 -16 -16 -16 -16 -16 -16 -17 -17 -17 -17 -17 -17 -17 -16 -16 -16 -15 -15 -15 -14 -15 -15 -14
-14 -15 -15 -15 -16 -16 -14 -13 -13 -14 -14 -14 -14 -14 -15 -15 -15 -16 -16 -16 -16 -16 -16 -16 -17 -17 -17 -17 -17 -17 -17 -17 -17 -17 -16 -16 -16 -15 -15 -15 -15 -15 -15 -15
-14 -15 -15 -15 -16 -16 -15 -14 -13 -14 -14 -14 -14 -14 -14 -15 -15 -16 -16 -16 -16 -16 -17 -17 -17 -17 -17 -17 -17 -17 -17 -17 -17 -17 -17 -16 -16 -16 -16 -15 -15 -15 -15 -15
-15 -15 -15 -15 -16 -16 -16 -14 -14 -14 -14 -15 -14 -15 -15 -15 -15 -15 -16 -16 -16 -17 -17 -17 -17 -17 -17 -17 -17 -17 -17 -17 -17 -17 -17 -16 -16 -16 -16 -16 -15 -15 -15 -15
Height
5792 5788 5782 5776 5770 5767 5763 5760 5755 5750 5745 5741 5735 5730 5728 5725 5722 5723 5723 5725 5727 5733 5738 5744 5750 5758 5767 5773 5778 5783 5787 5792 5795 5799 5802 5804 5807 5808 5808 5809 5811 5813 5814 5815
5792 5787 5781 5775 5769 5764 5761 5757 5753 5748 5743 5736 5730 5726 5721 5716 5713 5712 5712 5716 5719 5724 5729 5736 5742 5749 5757 5765 5772 5777 5782 5786 5790 5794 5795 5797 5800 5800 5800 5802 5804 5806 5807 5809
5789 5785 5780 5774 5768 5763 5759 5755 5750 5746 5739 5734 5727 5722 5715 5709 5705 5703 5702 5704 5709 5714 5721 5728 5735 5741 5749 5757 5766 5770 5776 5781 5785 5787 5789 5789 5791 5792 5794 5796 5797 5797 5799 5800
5788 5782 5778 5772 5767 5763 5758 5754 5749 5743 5737 5731 5727 5721 5713 5703 5700 5696 5694 5694 5697 5702 5711 5720 5728 5736 5742 5750 5759 5764 5769 5773 5777 5779 5781 5783 5783 5787 5789 5790 5790 5790 5790 5791
5786 5780 5775 5772 5768 5762 5758 5753 5748 5743 5737 5732 5725 5717 5708 5701 5696 5691 5687 5686 5688 5692 5700 5711 5722 5730 5736 5744 5753 5758 5762 5759 5771 5765 5770 5776 5778 5779 5779 5781 5783 5783 5782 5783
5783 5779 5776 5772 5767 5761 5757 5752 5747 5742 5736 5731 5722 5714 5706 5699 5694 5687 5681 5677 5676 5680 5689 5703 5717 5725 5731 5737 5745 5752 5757 5757 5751 5765 5768 5770 5771 5771 5770 5773 5774 5774 5774 5774
5781 5778 5775 5771 5767 5762 5756 5753 5747 5743 5736 5732 5723 5712 5705 5698 5692 5683 5677 5671 5672 5676 5685 5699 5714 5722 5729 5734 5740 5745 5750 5755 5755 5757 5760 5762 5764 5765 5765 5765 5764 5765 5765 5765
5779 5777 5774 5770 5766 5761 5756 5751 5747 5742 5737 5732 5723 5714 5707 5700 5693 5686 5680 5676 5676 5681 5690 5702 5713 5720 5727 5732 5737 5741 5745 5749 5750 5751 5755 5757 5757 5759 5758 5756 5756 5756 5755 5757
5777 5775 5772 5768 5764 5761 5756 5751 5749 5744 5738 5732 5726 5718 5709 5703 5698 5693 5689 5685 5687 5692 5697 5704 5714 5720 5726 5731 5736 5739 5743 5745 5746 5746 5749 5750 5749 5750 5751 5751 5749 5751 5749 5749
5775 5772 5769 5766 5763 5760 5756 5753 5749 5744 5739 5733 5729 5722 5714 5708 5704 5701 5697 5695 5695 5698 5702 5708 5715 5721 5726 5730 5733 5736 5738 5742 5744 5743 5745 5745 5746 5746 5745 5746 5746 5745 5746 5745
5772 5770 5770 5766 5762 5759 5757 5753 5748 5745 5740 5735 5730 5727 5720 5714 5709 5707 5705 5703 5703 5703 5706 5711 5717 5722 5725 5729 5732 5735 5737 5740 5740 5742 5743 5743 5741 5742 5743 5743 5743 5741 5740 5740
5773 5768 5765 5765 5762 5759 5756 5753 5749 5745 5743 5737 5734 5730 5726 5720 5715 5711 5711 5710 5710 5711 5712 5716 5721 5725 5727 5729 5732 5733 5735 5738 5739 5740 5739 5738 5738 5737 5737 5735 5738 5737 5738 5738
5773 5768 5764 5762 5761 5758 5754 5752 5749 5745 5742 5740 5736 5734 5729 5725 5720 5716 5715 5716 5716 5716 5717 5719 5721 5724 5726 5730 5732 5731 5734 5735 5734 5735 5734 5734 5732 5731 5732 5733 5734 5734 5734 5734
5772 5768 5763 5760 5757 5755 5753 5750 5748 5746 5743 5740 5738 5736 5732 5729 5726 5722 5720 5720 5719 5719 5719 5720 5721 5722 5724 5727 5726 5729 5730 5730 5727 5729 5728 5730 5730 5730 5730 5731 5730 5730 5729 5729
5769 5765 5762 5758 5755 5753 5751 5749 5747 5745 5743 5742 5739 5736 5734 5732 5729 5727 5725 5723 5722 5722 5721 5722 5722 5723 5723 5725 5725 5726 5727 5727 5727 5726 5728 5729 5727 5726 5726 5726 5724 5724 5723 5722
5765 5762 5759 5755 5752 5750 5749 5746 5744 5743 5742 5741 5739 5737 5735 5733 5731 5729 5728 5726 5725 5724 5725 5725 5724 5724 5724 5724 5725 5726 5726 5726 5726 5726 5726 5724 5723 5721 5721 5720 5719 5718 5717 5717
5761 5758 5756 5753 5750 5747 5747 5745 5742 5741 5740 5739 5738 5736 5734 5733 5732 5730 5729 5728 5727 5725 5725 5724 5725 5725 5724 5724 5723 5723 5722 5721 5721 5721 5720 5719 5717 5717 5716 5715 5714 5713 5710 5707
5757 5754 5752 5751 5748 5746 5743 5741 5739 5737 5737 5736 5736 5734 5733 5731 5731 5730 5729 5728 5727 5726 5725 5724 5723 5723 5723 5723 5722 5721 5719 5719 5717 5716 5714 5712 5711 5710 5709 5708 5707 5705 5702 5699
5751 5749 5748 5747 5745 5743 5740 5738 5737 5734 5733 5732 5732 5731 5730 5729 5728 5728 5727 5726 5726 5725 5724 5723 5722 5721 5720 5719 5718 5717 5716 5714 5712 5710 5708 5707 5706 5704 5703 5702 5700 5698 5693 5688
5745 5743 5742 5741 5740 5739 5737 5734 5733 5732 5730 5728 5727 5727 5727 5726 5725 5724 5724 5723 5723 5722 5722 5721 5720 5718 5717 5715 5714 5712 5710 5709 5706 5704 5702 5701 5699 5697 5697 5695 5692 5688 5683 5679
5738 5737 5736 5735 5734 5734 5733 5730 5728 5729 5730 5724 5722 5722 5721 5722 5721 5720 5719 5719 5718 5718 5718 5716 5715 5714 5712 5711 5709 5707 5705 5703 5700 5698 5695 5694 5692 5691 5688 5686 5684 5678 5673 5669
5732 5730 5731 5728 5726 5728 5726 5725 5724 5724 5722 5721 5719 5716 5715 5715 5716 5715 5715 5714 5713 5712 5711 5711 5710 5709 5708 5705 5703 5701 5698 5696 5693 5691 5690 5689 5687 5684 5682 5679 5674 5671 5667 5661
5725 5724 5724 5724 5720 5718 5719 5718 5717 5716 5716 5716 5715 5713 5710 5709 5708 5709 5708 5708 5708 5707 5706 5705 5704 5703 5702 5700 5699 5696 5693 5691 5689 5687 5685 5684 5682 5679 5675 5672 5668 5663 5657 5651
5717 5716 5717 5716 5714 5707 5711 5712 5712 5711 5709 5709 5709 5708 5705 5702 5702 5702 5702 5701 5701 5701 5700 5699 5698 5697 5696 5694 5693 5691 5688 5686 5684 5682 5679 5677 5675 5672 5668 5664 5660 5655 5649 5642
5709 5709 5709 5710 5708 5697 5702 5702 5703 5703 5704 5703 5702 5702 5700 5697 5695 5695 5695 5694 5694 5694 5694 5693 5692 5690 5689 5688 5687 5686 5683 5681 5679 5676 5674 5671 5669 5666 5662 5658 5653 5648 5641 5633
5704 5702 5700 5700 5697 5690 5691 5692 5695 5696 5696 5695 5695 5694 5693 5691 5688 5686 5686 5687 5687 5686 5686 5686 5686 5685 5683 5681 5681 5680 5677 5675 5672 5670 5668 5665 5663 5660 5656 5652 5647 5641 5634 5626
Wind_Speed
27 27 27 24 21 19 21 19 17 21 24 24 22 19 20 21 28 29 33 38 40 40 39 39 42 44 44 43 41 40 37 34 33 29 35 37 36 42 44 44 41 37 37 38
24 24 25 24 21 19 22 21 20 20 22 26 25 20 24 24 23 28 33 36 41 40 42 39 40 43 44 44 40 35 35 39 35 35 31 35 41 44 49 49 43 37 38 41
23 24 25 25 22 22 22 20 21 23 24 24 28 23 29 23 22 23 24 33 38 43 41 41 40 43 45 43 40 39 38 36 33 34 35 35 42 46 46 42 41 40 41 44
22 24 25 27 25 20 20 20 20 24 24 28 25 30 27 21 21 21 21 20 32 39 44 42 41 42 45 47 41 40 38 38 38 36 39 43 35 48 44 41 39 43 46 43
21 23 25 25 24 21 20 19 19 19 24 25 27 32 27 23 19 18 14 17 25 30 40 44 40 42 45 47 45 43 41 42 38 36 28 32 41 37 40 42 40 39 45 46
20 20 22 23 24 23 20 20 20 21 24 29 31 34 28 22 20 18 13 17 23 29 40 42 39 40 42 45 48 48 47 45 39 37 38 37 36 35 26 39 35 34 36 39
20 18 19 21 22 22 22 18 20 22 24 25 29 35 30 24 24 20 15 5 9 21 30 36 36 36 39 39 42 46 46 42 38 37 37 29 25 26 26 32 38 40 34 37
20 17 18 20 22 24 23 23 22 22 23 26 29 35 24 25 25 23 18 13 11 18 24 31 34 33 35 35 36 40 42 41 42 41 31 27 31 32 30 34 32 36 35 39
19 15 17 20 23 23 24 23 22 19 23 25 29 33 24 32 25 21 17 18 16 15 20 27 32 30 33 34 33 35 36 39 41 41 38 33 30 29 31 25 21 26 21 17
19 16 17 19 22 23 24 23 22 23 23 26 28 30 31 27 22 18 19 13 14 14 16 23 28 27 29 33 34 32 32 34 33 35 33 33 31 31 22 20 30 21 19 12
20 18 17 17 19 21 22 21 22 22 22 24 26 28 30 29 21 19 16 18 14 16 17 21 24 22 26 29 32 31 29 26 26 28 28 32 33 31 30 36 24 13 12 10
21 18 18 17 17 17 19 20 21 20 21 20 21 25 26 26 23 15 14 14 18 14 13 12 12 11 18 23 28 31 30 24 24 27 30 35 39 30 25 14 8 9 12 14
22 19 17 17 17 16 16 18 19 19 18 18 19 20 22 23 26 16 13 11 8 7 9 9 7 8 12 19 20 9 27 21 38 27 20 22 13 10 12 8 12 14 15 18
23 20 18 16 16 18 15 16 17 17 17 16 16 16 17 20 21 24 14 17 9 4 2 5 6 8 8 9 7 9 12 17 25 24 13 10 10 12 12 14 14 17 18 19
26 22 19 16 16 15 15 13 14 15 13 13 12 12 13 15 16 16 17 16 14 10 12 8 8 6 3 1 7 6 5 5 6 8 11 12 12 13 15 18 19 20 20 21
28 22 19 18 15 13 13 12 11 13 13 11 10 9 9 9 11 12 12 11 11 10 10 10 7 5 4 4 4 5 6 7 9 11 13 14 15 16 18 19 19 19 20 24
29 22 17 18 16 14 13 13 10 10 13 11 10 9 7 6 6 7 7 7 8 7 6 6 6 5 4 5 7 9 10 12 14 15 17 17 19 19 18 17 18 20 23 28
27 25 18 17 17 15 14 15 12 10 11 13 9 8 7 6 5 5 5 6 6 6 5 5 5 6 8 10 12 13 13 15 16 18 19 20 19 19 18 19 20 23 28 32
26 28 23 18 17 17 15 16 15 12 11 13 13 10 9 7 6 6 6 6 7 8 9 9 9 10 12 13 14 15 16 17 19 19 20 20 19 17 16 18 22 27 31 36
30 30 26 20 17 20 19 17 18 16 13 12 14 14 12 11 9 9 9 9 10 11 12 13 14 15 16 16 16 17 18 19 20 19 19 17 14 14 17 21 25 29 33 39
32 28 25 25 21 20 18 20 20 19 16 15 14 15 16 15 14 12 12 13 13 13 15 15 16 17 18 18 19 19 19 20 20 19 17 14 14 16 19 23 27 32 36 41
33 32 28 28 25 21 21 21 21 21 20 18 17 16 16 17 18 18 17 16 17 16 16 17 17 18 18 19 19 20 21 21 20 17 15 14 16 18 21 25 29 33 37 42
34 33 29 28 27 24 23 23 23 23 21 21 20 19 17 17 19 20 21 20 20 21 19 19 19 20 20 20 19 20 21 20 20 17 14 15 17 20 23 26 30 34 39 44
34 33 29 28 28 34 26 26 25 25 25 23 22 21 20 19 21 21 22 24 23 23 23 22 21 21 21 21 21 21 21 21 20 19 15 16 19 22 25 27 31 35 40 45
36 37 30 26 27 42 36 31 28 26 23 25 24 22 22 21 22 24 24 25 26 25 24 24 23 22 22 23 22 22 22 22 20 19 17 17 20 24 25 28 31 35 40 45
36 33 33 30 33 43 42 40 33 30 22 24 25 23 23 22 23 24 26 26 27 28 25 25 25 24 23 24 23 23 22 23 20 19 18 19 21 24 26 28 31 35 39 44
Wind_Direction
358 358 1 350 336 332 335 340 341 340 337 337 333 312 304 281 264 253 243 239 234 228 229 219 217 218 218 223 226 229 234 237 236 229 244 246 242 242 241 241 244 252 258 261
355 359 5 1 353 353 350 343 333 332 330 335 342 331 323 304 281 258 245 238 237 231 226 221 210 213 211 218 230 227 233 235 242 242 252 247 246 245 245 245 249 252 259 265
350 358 7 9 4 357 352 350 349 346 343 344 345 343 333 311 294 277 256 239 233 233 229 220 212 206 210 211 219 227 227 231 236 239 247 252 248 253 246 250 254 255 261 263
349 355 6 10 6 358 358 356 354 355 351 345 348 340 343 307 305 293 277 250 231 229 230 223 211 205 206 208 208 219 222 225 229 238 250 249 256 244 248 253 256 260 265 265
351 355 2 8 7 5 3 2 358 355 355 356 350 347 353 346 334 338 277 267 255 235 226 221 211 204 204 207 208 214 224 226 236 245 245 253 260 249 262 248 258 257 258 256
348 353 358 5 9 10 9 6 359 1 356 360 352 352 357 350 347 343 311 268 250 244 219 210 207 205 204 207 210 212 223 232 234 240 247 247 256 258 264 243 253 258 259 260
347 348 357 4 10 13 15 7 10 11 7 4 2 1 3 3 6 1 3 340 217 206 189 192 198 203 205 207 211 218 220 227 240 245 247 256 250 263 259 248 265 258 257 266
348 342 357 4 10 14 16 19 16 14 13 16 11 10 25 23 23 23 43 55 105 133 165 183 192 199 206 208 212 218 221 223 230 244 245 262 259 259 270 275 254 283 266 271
351 349 355 4 6 13 16 21 22 17 20 21 22 25 17 15 31 42 47 75 101 128 164 175 189 196 204 208 213 221 225 229 233 241 243 245 273 277 273 304 294 290 252 216
355 351 357 5 5 6 13 17 17 23 23 26 26 26 26 27 37 46 62 74 113 135 153 173 185 196 204 211 217 219 226 233 240 250 259 268 274 276 290 274 302 316 292 314
355 354 355 1 5 3 7 12 18 22 24 26 28 28 30 29 30 46 59 77 92 108 142 162 183 196 206 212 219 227 233 241 248 260 274 285 273 281 276 270 302 336 338 319
352 352 349 352 0 4 1 8 14 18 27 28 26 31 31 36 35 40 54 67 82 84 92 137 175 196 213 218 225 233 238 249 256 256 260 268 277 275 259 305 315 298 283 285
348 346 346 343 348 357 2 1 9 13 19 28 31 27 30 31 38 50 57 59 86 115 144 163 187 216 225 220 230 265 231 248 244 255 254 267 306 318 318 297 278 281 285 287
340 341 340 342 338 341 356 358 359 6 14 19 29 32 30 34 38 47 69 55 60 82 173 206 202 204 227 219 198 228 239 269 265 266 292 290 285 283 280 280 283 284 286 288
340 333 334 337 332 331 334 354 351 355 5 13 18 27 31 34 38 44 52 51 51 64 79 132 136 125 30 248 220 244 260 284 282 274 273 274 278 283 282 284 290 293 294 297
323 329 327 327 330 325 323 332 347 341 346 358 7 12 26 27 31 40 41 47 56 50 47 63 66 53 25 4 337 311 303 298 293 286 282 284 286 292 291 290 289 287 293 297
316 327 319 318 323 320 315 315 330 333 328 337 348 352 5 15 18 18 23 31 25 33 39 27 14 360 344 325 313 310 310 312 306 300 298 298 291 288 292 288 290 298 305 306
312 322 319 313 312 312 309 305 309 317 319 315 322 328 341 345 346 346 344 343 344 345 343 336 327 321 314 310 308 304 301 298 295 294 296 294 294 293 291 292 301 307 308 309
307 314 316 305 306 306 304 305 301 303 305 305 307 310 315 318 318 314 307 303 299 301 303 303 299 297 297 298 297 298 299 297 295 296 294 290 286 286 290 303 307 307 312 316
298 309 307 308 299 299 300 303 302 306 295 298 299 302 302 299 296 294 293 291 290 289 284 285 289 291 293 294 297 297 300 302 300 296 295 286 286 295 301 305 308 312 316 316
289 302 303 306 300 295 295 294 299 303 295 291 291 295 297 291 287 284 281 281 282 284 288 288 289 291 292 292 293 293 295 301 304 300 299 298 301 301 307 309 314 320 320 322
277 294 298 304 301 289 284 288 292 290 292 290 287 286 288 290 286 282 278 275 275 275 279 284 288 292 295 297 300 298 294 298 305 300 298 298 302 306 308 315 321 319 321 324
270 285 289 300 302 293 278 278 288 286 286 289 285 281 280 282 281 278 277 273 273 277 276 278 283 289 293 296 301 304 302 293 301 293 289 298 306 308 311 318 320 323 327 328
266 278 282 288 293 291 281 277 277 286 287 288 285 280 272 272 276 275 273 273 274 274 277 277 278 283 287 291 297 301 306 299 297 294 287 299 305 310 317 322 324 329 331 335
259 269 281 275 283 283 287 278 273 278 284 285 285 284 280 277 275 275 271 270 271 272 274 275 276 277 282 286 290 296 302 305 297 298 290 299 307 314 321 324 328 332 336 340
264 263 268 273 274 276 281 281 277 273 282 292 280 275 275 275 274 275 271 269 269 268 268 270 273 276 277 280 284 291 297 307 299 299 293 301 311 317 323 325 330 334 338 341